Douglas, WY

7:50 PM MST on February 24, 2017 (GMT -0700)
Converse County

Weather History for KDGW - December, 2012

Change the Weather History Date:

Tuesday, December 11, 2012

  Actual Average Record
Temperature  
Mean Temperature 22 °F 24 °F  
Max Temperature 38 °F 37 °F 63 °F (2014)
Min Temperature 6 °F 11 °F -20 °F (2000)
Degree Days  
Heating Degree Days 43 41  
Month to date heating degree days 251 441  
Since 1 July heating degree days 1798 2263  
Cooling Degree Days 0 0  
Month to date cooling degree days 0 0  
Year to date cooling degree days 831 486  
Moisture  
Dew Point 17 °F    
Average Humidity 70    
Maximum Humidity 91    
Minimum Humidity 48    
Precipitation  
Precipitation 0.00 in 0.01 in 0.01 in (2007)
Month to date precipitation T 0.16  
Year to date precipitation 5.26 13.15  
Sea Level Pressure  
Sea Level Pressure 29.84 in    
Wind  
Wind Speed 9 mph (WSW)    
Max Wind Speed 29 mph    
Max Gust Speed 37 mph    
Visibility 10 miles    
Events      
T = Trace of Precipitation, MM = Missing Value Source: NWS Daily Summary

Daily Weather History Graph

Daily Weather History Graph

Search for Another Location

Airport or City:

Trip Planner

Search our weather history database for the weather conditions in past years. The results will help you decide how hot, cold, wet, or windy it might be!

Date:

Astronomy

Dec. 11, 2012 Rise Set
Actual Time 7:22 AM MST 4:27 PM MST
Civil Twilight 6:50 AM MST 4:59 PM MST
Nautical Twilight 6:14 AM MST 5:35 PM MST
Astronomical Twilight 5:40 AM MST 6:09 PM MST
Moon 5:19 AM MST (12/11) 3:09 PM MST (12/11)
Length of Visible Light 10h 09m
Length of Day
9h 05m
Waning Crescent, 4% of the Moon is Illuminated
Dec 11
Waning Crescent
Dec 13
New
Dec 19
First Quarter
Dec 28
Full
Jan 4
Last Quarter

Hourly Weather History & Observations

Time (MST) Temp. Windchill Dew Point Humidity Pressure Visibility Wind Dir Wind Speed Gust Speed Precip Events Conditions
12:53 AM 12.0 °F - 8.1 °F 84% 30.07 in 10.0 mi Calm Calm - N/A   Clear
1:53 AM 10.0 °F 1.8 °F 6.1 °F 84% 30.08 in 10.0 mi NW 4.6 mph - N/A   Clear
2:53 AM 8.1 °F - 6.1 °F 92% 30.08 in 10.0 mi Calm Calm - N/A   Mostly Cloudy
3:53 AM - - - N/A% 29.89 in 10.0 mi Calm Calm - N/A   Mostly Cloudy
4:53 AM - - - N/A% 29.88 in 10.0 mi Calm Calm - N/A   Clear
5:53 AM - - - N/A% 29.87 in 10.0 mi Calm Calm - N/A   Clear
6:53 AM - - - N/A% 29.87 in 10.0 mi North 4.6 mph - N/A   Scattered Clouds
7:53 AM - - - N/A% 29.87 in 10.0 mi Calm Calm - N/A   Clear
8:53 AM 12.0 °F - 9.0 °F 88% 30.04 in 10.0 mi Calm Calm - N/A   Clear
9:53 AM 17.1 °F 10.0 °F 10.9 °F 77% 30.02 in 10.0 mi South 4.6 mph - N/A   Clear
10:53 AM 23.0 °F 18.4 °F 12.0 °F 63% 29.96 in 10.0 mi SE 3.5 mph - N/A   Clear
11:53 AM 27.0 °F 20.5 °F 14.0 °F 58% 29.92 in 10.0 mi SE 5.8 mph - 0.01 in   Clear
12:53 PM 30.9 °F 24.3 °F 17.1 °F 57% 29.86 in 10.0 mi SSW 6.9 mph - N/A   Clear
1:34 PM 35.6 °F 25.9 °F 19.4 °F 52% 29.71 in 10.0 mi WSW 16.1 mph - N/A   Clear
1:53 PM 37.0 °F 27.7 °F 19.9 °F 50% 29.82 in 10.0 mi WSW 16.1 mph - N/A   Clear
2:53 PM 37.0 °F 29.8 °F 19.9 °F 50% 29.81 in 10.0 mi SW 10.4 mph 19.6 mph N/A   Partly Cloudy
3:53 PM 37.0 °F 28.1 °F 19.9 °F 50% 29.68 in 10.0 mi WSW 15.0 mph - N/A   Clear
4:53 PM 36.0 °F 26.3 °F 19.9 °F 52% 29.67 in 10.0 mi West 16.1 mph 25.3 mph N/A   Clear
5:53 PM 36.0 °F 27.1 °F 21.0 °F 55% 29.66 in 10.0 mi West 13.8 mph 21.9 mph N/A   Clear
6:53 PM 37.0 °F 25.4 °F 23.0 °F 57% 29.64 in 10.0 mi West 25.3 mph 31.1 mph N/A   Clear
7:53 PM 36.0 °F 25.3 °F 23.0 °F 59% 29.66 in 10.0 mi West 19.6 mph 27.6 mph N/A   Clear
8:53 PM 35.1 °F 22.5 °F 21.9 °F 59% 29.77 in 10.0 mi West 26.5 mph 36.8 mph N/A   Clear
9:53 PM 33.1 °F 26.1 °F 19.9 °F 59% 29.78 in 10.0 mi SW 8.1 mph - N/A   Clear
10:53 PM 35.1 °F 25.2 °F 21.0 °F 57% 29.74 in 10.0 mi West 16.1 mph - N/A   Clear
11:53 PM 34.0 °F 25.5 °F 19.9 °F 56% 29.71 in 10.0 mi WNW 11.5 mph - N/A   Clear